Regional Weather Roundup
Issued by NWS

Home | Current Version | Previous Version | Text Only | Print | Product List | Glossary On
Versions: 1 2 3 4 5 6 7 8 9 10 11 12 13 14 15 16 17 18 19 20 21 22 23 24 25 26 27 28 29 30 31 32 33 34 35 36 37 38 39 40 41 42 43 44 45 46 47 48 49 50
000
ASUS43 KBIS 270610
RWRND

NORTH DAKOTA REGIONAL WEATHER ROUNDUP
NATIONAL WEATHER SERVICE BISMARCK ND
1200 AM CST FRI FEB 27 2015

NOTE: "FAIR" INDICATES FEW OR NO CLOUDS BELOW 12,000 FEET WITH NO
SIGNIFICANT WEATHER AND/OR OBSTRUCTIONS TO VISIBILITY.


NDZ001>003-009>011-017-270700-
NORTHWEST NORTH DAKOTA

CITY           SKY/WX    TMP DP  RH WIND       PRES   REMARKS
WILLISTON      MOCLDY   -12 -16  82 CALM      30.41F
6HR MIN TEMP: -13; 6HR MAX TEMP:   8;

MINOT          MOCLDY    -9 -16  71 SW8       30.43F WCI -25
$$

NDZ018>021-031>035-040>046-270700-
SOUTHWEST NORTH DAKOTA

CITY           SKY/WX    TMP DP  RH WIND       PRES   REMARKS
BISMARCK       CLEAR     -6 -12  75 W3        30.49F
6HR MIN TEMP:  -8; 6HR MAX TEMP:   8;

DICKINSON      CLEAR     -5 -11  75 S8        30.35F WCI -20
GARRISON         N/A    -14 -18  82 CALM      30.44F
6HR MIN TEMP: -16; 6HR MAX TEMP:   2;

HETTINGER ARPT CLEAR     -8 -12  83 CALM      30.38F
$$

NDZ004>008-012>016-024-026-027-054-270700-
NORTHEAST NORTH DAKOTA

CITY           SKY/WX    TMP DP  RH WIND       PRES   REMARKS
GRAND FORKS    CLEAR     -9 -14  78 W8        30.48F WCI -25
DEVILS LAKE    PTCLDY   N/A N/A N/A MISG        N/A
$$

NDZ022-023-025-028>030-036>039-047>053-270700-
SOUTHEAST NORTH DAKOTA

CITY           SKY/WX    TMP DP  RH WIND       PRES   REMARKS
FARGO          PTCLDY    -5 -12  72 W7        30.51F WCI -19
6HR MIN TEMP:  -6; 6HR MAX TEMP:   6;

JAMESTOWN      PTCLDY    -8 -13  78 W6        30.46F WCI -21
$$




USA.gov is the U.S. government's official web portal to all federal, state and local government web resources and services.